WXM80 ListenWXM80 Stop

You find our weather info also at:

UK Metoffice

WeatherCloud

Weather Underground

Northeastern Weather Network

AWEKAS

Citizen Weather Observer Program (CWOP)

HAMweather, WeatherForYou, PWS Weather


Weather Underground History page Text

Daily Summary for October 16, 2017 Units:  English    Metric   Both
« Previous Day
Next Day »
Daily Weekly Monthly Yearly Custom
  High: Low: Average:
Temperature: 68.7 °F 49.5 °F 59.5 °F
Dew Point: 66.5 °F 39.4 °F 51.1 °F
Humidity: 94 % 65 % 74 %
Wind Speed: 10.7 mph 0.1 mph 4.6 mph
Wind Gust: 18.4 mph - -
Wind:- - SW
Pressure: 30.15 in 29.75 in -
Precipitation: 0.00 in    
Historical Graphs
 
 
Tabular Data for October 16, 2017
Time Temperature Dew Point Pressure Wind Wind Speed Wind Gust Humidity Rainfall Rate (Hourly)
00:00 67.9 °F 65.8 °F 29.76 in SSW 3.7 mph 8.0 mph 93 % 0.00 in
00:05 67.9 °F 65.8 °F 29.77 in SSW 2.9 mph 8.1 mph 93 % 0.00 in
00:10 68.0 °F 65.9 °F 29.76 in SSW 1.1 mph 4.6 mph 93 % 0.00 in
00:15 68.0 °F 65.9 °F 29.76 in South 4.0 mph 6.9 mph 93 % 0.00 in
00:20 68.1 °F 66.0 °F 29.76 in SSW 2.1 mph 8.0 mph 93 % 0.00 in
00:25 68.1 °F 66.0 °F 29.75 in SSW 0.4 mph 3.5 mph 93 % 0.00 in
00:30 68.1 °F 66.3 °F 29.76 in WSW 3.8 mph 5.8 mph 94 % 0.00 in
00:36 68.2 °F 66.1 °F 29.76 in WSW 6.0 mph 12.0 mph 93 % 0.00 in
00:41 68.2 °F 66.1 °F 29.76 in WSW 2.0 mph 7.0 mph 93 % 0.00 in
00:45 68.3 °F 66.2 °F 29.76 in WSW 0.8 mph 3.5 mph 93 % 0.00 in
00:51 68.3 °F 66.2 °F 29.77 in WSW 5.0 mph 12.0 mph 93 % 0.00 in
00:56 68.4 °F 66.3 °F 29.77 in SW 5.0 mph 12.0 mph 93 % 0.00 in
01:01 68.4 °F 66.3 °F 29.78 in WSW 1.6 mph 4.6 mph 93 % 0.00 in
01:06 68.5 °F 66.4 °F 29.76 in WSW 1.7 mph 5.8 mph 93 % 0.00 in
01:11 68.5 °F 66.4 °F 29.77 in WSW 0.7 mph 7.0 mph 93 % 0.00 in
01:16 68.5 °F 66.4 °F 29.76 in WSW 3.9 mph 10.4 mph 93 % 0.00 in
01:21 68.5 °F 66.4 °F 29.76 in SSW 5.0 mph 9.2 mph 93 % 0.00 in
01:26 68.6 °F 66.5 °F 29.75 in WSW 1.1 mph 6.9 mph 93 % 0.00 in
01:31 68.6 °F 66.2 °F 29.75 in SSW 3.2 mph 5.8 mph 92 % 0.00 in
01:36 68.6 °F 66.2 °F 29.75 in SSW 3.4 mph 7.0 mph 92 % 0.00 in
01:41 68.6 °F 66.2 °F 29.75 in WSW 3.4 mph 6.0 mph 92 % 0.00 in
01:46 68.6 °F 66.2 °F 29.75 in WSW 2.9 mph 4.6 mph 92 % 0.00 in
01:51 68.7 °F 66.3 °F 29.75 in WSW 4.9 mph 8.0 mph 92 % 0.00 in
01:56 68.6 °F 66.2 °F 29.75 in West 3.1 mph 5.8 mph 92 % 0.00 in
02:01 68.7 °F 66.3 °F 29.75 in SW 0.7 mph 3.5 mph 92 % 0.00 in
02:06 68.7 °F 66.3 °F 29.77 in WNW 3.7 mph 6.9 mph 92 % 0.00 in
02:11 68.7 °F 66.3 °F 29.77 in WNW 2.0 mph 3.5 mph 92 % 0.00 in
02:16 68.7 °F 66.0 °F 29.77 in NW 4.8 mph 9.2 mph 91 % 0.00 in
02:21 68.6 °F 65.5 °F 29.77 in NE 3.1 mph 9.2 mph 90 % 0.00 in
02:26 68.5 °F 65.4 °F 29.78 in WNW 2.8 mph 5.0 mph 90 % 0.00 in
02:31 68.4 °F 65.0 °F 29.79 in NW 2.5 mph 8.0 mph 89 % 0.00 in
02:36 68.2 °F 64.5 °F 29.78 in ESE 4.9 mph 11.5 mph 88 % 0.00 in
02:41 68.0 °F 64.0 °F 29.78 in WNW 4.9 mph 10.4 mph 87 % 0.00 in
02:46 67.9 °F 63.6 °F 29.79 in NNW 4.7 mph 13.8 mph 86 % 0.00 in
02:51 67.7 °F 63.4 °F 29.79 in NNW 4.4 mph 8.1 mph 86 % 0.00 in
02:56 67.7 °F 63.4 °F 29.78 in WNW 2.5 mph 7.0 mph 86 % 0.00 in
03:01 67.5 °F 62.8 °F 29.76 in NW 2.3 mph 9.2 mph 85 % 0.00 in
03:06 67.4 °F 62.7 °F 29.77 in West 6.1 mph 8.1 mph 85 % 0.00 in
03:11 67.4 °F 63.1 °F 29.77 in WSW 3.1 mph 6.9 mph 86 % 0.00 in
03:16 67.2 °F 61.5 °F 29.79 in West 7.0 mph 11.5 mph 82 % 0.00 in
03:21 67.0 °F 60.3 °F 29.77 in NW 10.7 mph 17.3 mph 79 % 0.00 in
03:26 66.9 °F 60.2 °F 29.79 in WNW 5.6 mph 8.1 mph 79 % 0.00 in
03:31 66.8 °F 59.7 °F 29.80 in NW 5.5 mph 9.2 mph 78 % 0.00 in
03:36 66.8 °F 59.7 °F 29.79 in North 6.8 mph 12.0 mph 78 % 0.00 in
03:41 66.7 °F 59.6 °F 29.79 in NW 4.5 mph 12.7 mph 78 % 0.00 in
03:46 66.7 °F 59.6 °F 29.80 in NW 5.8 mph 10.4 mph 78 % 0.00 in
03:51 66.6 °F 59.9 °F 29.80 in NW 3.1 mph 8.1 mph 79 % 0.00 in
03:56 66.5 °F 59.4 °F 29.80 in WNW 5.6 mph 6.9 mph 78 % 0.00 in
04:01 66.4 °F 59.7 °F 29.79 in WNW 4.7 mph 12.0 mph 79 % 0.00 in
04:06 66.2 °F 59.5 °F 29.79 in NNW 4.9 mph 11.5 mph 79 % 0.00 in
04:11 66.1 °F 59.0 °F 29.80 in NNW 8.6 mph 15.0 mph 78 % 0.00 in
04:16 65.9 °F 58.5 °F 29.79 in West 4.5 mph 8.1 mph 77 % 0.00 in
04:21 65.8 °F 58.7 °F 29.80 in West 8.2 mph 12.0 mph 78 % 0.00 in
04:26 65.5 °F 58.5 °F 29.79 in WNW 8.6 mph 15.0 mph 78 % 0.00 in
04:31 65.3 °F 59.0 °F 29.79 in NW 5.6 mph 12.0 mph 80 % 0.00 in
04:36 65.0 °F 59.0 °F 29.79 in WSW 6.7 mph 10.4 mph 81 % 0.00 in
04:41 64.7 °F 59.1 °F 29.79 in WNW 4.9 mph 9.2 mph 82 % 0.00 in
04:46 64.5 °F 58.9 °F 29.79 in West 6.0 mph 15.0 mph 82 % 0.00 in
04:51 64.3 °F 59.0 °F 29.79 in WNW 2.5 mph 5.0 mph 83 % 0.00 in
04:56 64.2 °F 58.9 °F 29.80 in NW 3.3 mph 6.9 mph 83 % 0.00 in
05:01 64.1 °F 59.2 °F 29.80 in WNW 3.8 mph 6.9 mph 84 % 0.00 in
05:06 63.9 °F 59.3 °F 29.80 in WNW 3.0 mph 4.6 mph 85 % 0.00 in
05:11 63.8 °F 59.2 °F 29.81 in NW 6.8 mph 7.0 mph 85 % 0.00 in
05:16 63.6 °F 58.7 °F 29.81 in SW 3.6 mph 6.9 mph 84 % 0.00 in
05:21 63.5 °F 58.2 °F 29.82 in WNW 4.5 mph 7.0 mph 83 % 0.00 in
05:27 63.4 °F 58.1 °F 29.81 in SW 1.5 mph 8.1 mph 83 % 0.00 in
05:32 63.4 °F 58.5 °F 29.82 in NNW 3.2 mph 4.0 mph 84 % 0.00 in
05:37 63.3 °F 58.4 °F 29.81 in WNW 5.3 mph 10.4 mph 84 % 0.00 in
05:42 63.2 °F 57.9 °F 29.81 in NNW 3.9 mph 11.5 mph 83 % 0.00 in
05:47 63.2 °F 57.9 °F 29.81 in WNW 3.6 mph 6.0 mph 83 % 0.00 in
05:52 63.2 °F 57.9 °F 29.81 in WNW 2.2 mph 4.6 mph 83 % 0.00 in
05:57 63.2 °F 57.9 °F 29.81 in West 1.5 mph 9.2 mph 83 % 0.00 in
06:02 63.2 °F 57.6 °F 29.82 in NNW 3.8 mph 9.2 mph 82 % 0.00 in
06:07 63.1 °F 57.5 °F 29.83 in North 3.2 mph 6.9 mph 82 % 0.00 in
06:12 63.1 °F 57.5 °F 29.82 in WNW 2.6 mph 7.0 mph 82 % 0.00 in
06:17 63.1 °F 57.2 °F 29.83 in NW 2.8 mph 9.2 mph 81 % 0.00 in
06:22 63.0 °F 56.7 °F 29.83 in NNE 3.0 mph 5.8 mph 80 % 0.00 in
06:27 62.9 °F 56.6 °F 29.84 in West 6.5 mph 11.5 mph 80 % 0.00 in
06:32 62.9 °F 55.9 °F 29.84 in WNW 2.3 mph 5.8 mph 78 % 0.00 in
06:37 62.8 °F 55.5 °F 29.84 in NNW 5.0 mph 10.4 mph 77 % 0.00 in
06:42 62.7 °F 55.7 °F 29.84 in WSW 8.1 mph 16.0 mph 78 % 0.00 in
06:47 62.7 °F 55.7 °F 29.84 in NW 0.5 mph 10.4 mph 78 % 0.00 in
06:52 62.6 °F 55.6 °F 29.85 in NW 1.8 mph 6.0 mph 78 % 0.00 in
06:57 62.6 °F 56.0 °F 29.84 in NW 3.0 mph 10.4 mph 79 % 0.00 in
07:02 62.5 °F 55.9 °F 29.84 in WNW 4.4 mph 8.0 mph 79 % 0.00 in
07:08 62.5 °F 55.5 °F 29.85 in West 5.5 mph 9.2 mph 78 % 0.00 in
07:13 62.4 °F 55.4 °F 29.86 in NNW 2.2 mph 5.8 mph 78 % 0.00 in
07:18 62.3 °F 55.4 °F 29.85 in WNW 0.7 mph 2.3 mph 78 % 0.00 in
07:23 62.2 °F 55.3 °F 29.86 in NW 3.4 mph 11.5 mph 78 % 0.00 in
07:28 62.1 °F 54.4 °F 29.86 in WNW 2.3 mph 12.7 mph 76 % 0.00 in
07:33 62.0 °F 54.3 °F 29.86 in North 3.3 mph 9.2 mph 76 % 0.00 in
07:38 61.9 °F 54.2 °F 29.87 in NW 4.6 mph 12.7 mph 76 % 0.00 in
07:43 61.8 °F 53.8 °F 29.88 in WNW 6.5 mph 18.4 mph 75 % 0.00 in
07:48 61.7 °F 54.1 °F 29.87 in West 5.3 mph 9.2 mph 76 % 0.00 in
07:53 61.6 °F 53.6 °F 29.88 in NW 7.1 mph 13.8 mph 75 % 0.00 in
07:58 61.6 °F 53.6 °F 29.88 in WNW 4.6 mph 9.2 mph 75 % 0.00 in
08:03 61.4 °F 53.0 °F 29.88 in North 6.2 mph 11.5 mph 74 % 0.00 in
08:08 61.3 °F 52.2 °F 29.88 in NNW 5.7 mph 13.8 mph 72 % 0.00 in
08:13 61.2 °F 51.7 °F 29.89 in WNW 7.2 mph 13.0 mph 71 % 0.00 in
08:18 61.1 °F 52.0 °F 29.89 in WNW 6.2 mph 12.7 mph 72 % 0.00 in
08:23 60.9 °F 51.0 °F 29.89 in NNW 6.7 mph 13.0 mph 70 % 0.00 in
08:28 60.7 °F 50.5 °F 29.90 in West 4.2 mph 13.8 mph 69 % 0.00 in
08:34 60.6 °F 50.0 °F 29.90 in WNW 4.9 mph 10.4 mph 68 % 0.00 in
08:39 60.4 °F 49.8 °F 29.90 in SW 4.6 mph 8.1 mph 68 % 0.00 in
08:44 60.3 °F 49.7 °F 29.90 in West 2.0 mph 9.2 mph 68 % 0.00 in
08:49 60.3 °F 50.5 °F 29.90 in NW 5.7 mph 9.2 mph 70 % 0.00 in
08:54 60.2 °F 50.8 °F 29.91 in NNE 1.2 mph 9.2 mph 71 % 0.00 in
08:59 60.2 °F 51.1 °F 29.90 in WNW 4.3 mph 5.8 mph 72 % 0.00 in
09:04 60.1 °F 50.3 °F 29.91 in NNW 3.8 mph 10.4 mph 70 % 0.00 in
09:09 60.0 °F 49.8 °F 29.90 in West 1.5 mph 4.6 mph 69 % 0.00 in
09:14 59.9 °F 49.3 °F 29.91 in WNW 5.9 mph 11.5 mph 68 % 0.00 in
09:19 59.9 °F 50.1 °F 29.92 in NNW 3.3 mph 5.8 mph 70 % 0.00 in
09:24 59.9 °F 50.5 °F 29.92 in NNE 1.8 mph 5.8 mph 71 % 0.00 in
09:29 59.9 °F 50.8 °F 29.91 in NNE 2.1 mph 8.1 mph 72 % 0.00 in
09:34 59.8 °F 50.8 °F 29.91 in WNW 5.6 mph 8.1 mph 72 % 0.00 in
09:39 59.8 °F 50.4 °F 29.93 in WNW 6.5 mph 10.0 mph 71 % 0.00 in
09:44 59.7 °F 49.9 °F 29.94 in WSW 5.7 mph 10.4 mph 70 % 0.00 in
09:49 59.6 °F 49.4 °F 29.93 in WNW 1.8 mph 13.8 mph 69 % 0.00 in
09:54 59.5 °F 49.3 °F 29.92 in West 3.9 mph 8.1 mph 69 % 0.00 in
09:59 59.3 °F 49.5 °F 29.92 in WNW 3.8 mph 4.6 mph 70 % 0.00 in
10:05 59.1 °F 49.7 °F 29.93 in NNW 2.8 mph 6.9 mph 71 % 0.00 in
10:10 59.0 °F 49.6 °F 29.93 in NNW 2.5 mph 5.8 mph 71 % 0.00 in
10:15 58.9 °F 49.1 °F 29.92 in NW 5.1 mph 8.1 mph 70 % 0.00 in
10:20 58.8 °F 49.0 °F 29.94 in NW 2.7 mph 6.9 mph 70 % 0.00 in
10:25 58.8 °F 49.4 °F 29.93 in NNW 3.3 mph 4.6 mph 71 % 0.00 in
10:30 58.9 °F 49.9 °F 29.93 in SW 4.2 mph 9.2 mph 72 % 0.00 in
10:35 59.1 °F 50.1 °F 29.93 in NNE 2.4 mph 8.1 mph 72 % 0.00 in
10:40 59.2 °F 49.8 °F 29.95 in NE 2.8 mph 5.8 mph 71 % 0.00 in
10:45 59.2 °F 49.4 °F 29.94 in WNW 2.9 mph 5.8 mph 70 % 0.00 in
10:50 59.2 °F 49.4 °F 29.95 in West 3.4 mph 9.2 mph 70 % 0.00 in
10:55 59.2 °F 49.8 °F 29.95 in NW 2.3 mph 5.0 mph 71 % 0.00 in
11:00 59.1 °F 50.1 °F 29.93 in NNE 3.4 mph 6.9 mph 72 % 0.00 in
11:05 59.2 °F 50.2 °F 29.95 in WNW 2.8 mph 5.8 mph 72 % 0.00 in
11:10 59.4 °F 50.4 °F 29.94 in NW 6.1 mph 9.2 mph 72 % 0.00 in
11:15 59.6 °F 51.3 °F 29.94 in NW 0.1 mph 1.2 mph 74 % 0.00 in
11:20 59.7 °F 50.7 °F 29.94 in NW 3.5 mph 5.8 mph 72 % 0.00 in
11:25 59.9 °F 50.8 °F 29.93 in NNE 5.2 mph 9.2 mph 72 % 0.00 in
11:30 60.2 °F 51.1 °F 29.93 in NNE 5.4 mph 11.5 mph 72 % 0.00 in
11:35 60.4 °F 50.6 °F 29.94 in NNE 2.2 mph 12.0 mph 70 % 0.00 in
11:40 60.4 °F 50.6 °F 29.95 in West 1.8 mph 7.0 mph 70 % 0.00 in
11:45 60.4 °F 50.2 °F 29.95 in NNW 2.7 mph 5.8 mph 69 % 0.00 in
11:50 60.2 °F 50.8 °F 29.95 in North 3.2 mph 5.0 mph 71 % 0.00 in
11:55 60.1 °F 50.3 °F 29.95 in North 2.4 mph 4.6 mph 70 % 0.00 in
12:00 60.0 °F 50.6 °F 29.95 in North 2.7 mph 9.2 mph 71 % 0.00 in
12:05 60.0 °F 49.8 °F 29.96 in North 2.4 mph 5.8 mph 69 % 0.00 in
12:10 59.9 °F 50.1 °F 29.97 in North 2.7 mph 6.9 mph 70 % 0.00 in
12:15 59.9 °F 50.1 °F 29.97 in WNW 3.0 mph 8.1 mph 70 % 0.00 in
12:20 59.8 °F 50.0 °F 29.96 in North 1.8 mph 7.0 mph 70 % 0.00 in
12:25 59.8 °F 50.0 °F 29.94 in NE 3.5 mph 5.0 mph 70 % 0.00 in
12:26 59.7 °F 49.9 °F 29.94 in NE 4.1 mph 6.0 mph 70 % 0.00 in
12:31 59.6 °F 49.4 °F 29.94 in NNE 3.8 mph 9.2 mph 69 % 0.00 in
12:36 59.4 °F 49.2 °F 29.95 in NNE 4.9 mph 7.0 mph 69 % 0.00 in
12:41 59.4 °F 49.6 °F 29.95 in WNW 4.8 mph 10.4 mph 70 % 0.00 in
12:46 59.3 °F 49.5 °F 29.95 in WNW 2.1 mph 4.6 mph 70 % 0.00 in
12:51 59.3 °F 49.5 °F 29.96 in NNE 3.3 mph 9.2 mph 70 % 0.00 in
12:52 59.4 °F 50.0 °F 29.96 in NNW 4.3 mph 4.6 mph 71 % 0.00 in
12:57 59.6 °F 49.4 °F 29.94 in NNE 5.1 mph 10.4 mph 69 % 0.00 in
13:03 59.9 °F 50.1 °F 29.95 in North 2.3 mph 8.1 mph 70 % 0.00 in
13:08 59.9 °F 49.3 °F 29.94 in North 2.8 mph 6.0 mph 68 % 0.00 in
13:13 59.9 °F 49.3 °F 29.94 in NNW 1.5 mph 10.4 mph 68 % 0.00 in
13:23 59.7 °F 49.1 °F 29.93 in North 2.7 mph 11.5 mph 68 % 0.00 in
13:28 59.5 °F 48.5 °F 29.93 in North 5.4 mph 11.5 mph 67 % 0.00 in
13:33 59.3 °F 48.3 °F 29.93 in North 4.2 mph 9.2 mph 67 % 0.00 in
13:38 59.1 °F 49.3 °F 29.94 in West 3.7 mph 11.5 mph 70 % 0.00 in
13:43 58.9 °F 48.7 °F 29.94 in NNE 4.4 mph 8.1 mph 69 % 0.00 in
13:48 58.7 °F 48.6 °F 29.95 in North 4.2 mph 8.1 mph 69 % 0.00 in
13:53 58.6 °F 47.7 °F 29.95 in NNW 8.1 mph 11.5 mph 67 % 0.00 in
13:54 58.6 °F 47.7 °F 29.95 in North 3.6 mph 11.5 mph 67 % 0.00 in
13:59 58.5 °F 48.0 °F 29.94 in NNE 2.0 mph 5.8 mph 68 % 0.00 in
14:04 58.5 °F 48.4 °F 29.95 in NNW 3.3 mph 8.0 mph 69 % 0.00 in
14:09 58.4 °F 48.3 °F 29.94 in North 6.0 mph 11.0 mph 69 % 0.00 in
14:14 58.3 °F 47.4 °F 29.95 in NE 4.2 mph 6.9 mph 67 % 0.00 in
14:19 58.2 °F 47.3 °F 29.95 in NNW 5.0 mph 8.1 mph 67 % 0.00 in
14:24 58.2 °F 47.3 °F 29.96 in North 2.0 mph 8.1 mph 67 % 0.00 in
14:29 58.2 °F 47.3 °F 29.96 in NNE 1.7 mph 5.0 mph 67 % 0.00 in
14:34 58.1 °F 47.6 °F 29.96 in North 4.6 mph 10.4 mph 68 % 0.00 in
14:39 57.9 °F 47.4 °F 29.95 in NNE 5.5 mph 12.7 mph 68 % 0.00 in
14:44 57.8 °F 48.1 °F 29.96 in NNW 3.6 mph 13.8 mph 70 % 0.00 in
14:49 57.8 °F 48.1 °F 29.96 in North 4.2 mph 11.5 mph 70 % 0.00 in
14:55 58.1 °F 48.0 °F 29.96 in North 6.7 mph 11.5 mph 69 % 0.00 in
15:00 58.3 °F 47.8 °F 29.96 in NNE 5.1 mph 11.5 mph 68 % 0.00 in
15:05 58.4 °F 47.9 °F 29.96 in North 5.8 mph 9.2 mph 68 % 0.00 in
15:10 58.5 °F 47.6 °F 29.96 in North 4.1 mph 10.0 mph 67 % 0.00 in
15:15 58.6 °F 47.7 °F 29.97 in NNE 3.5 mph 11.5 mph 67 % 0.00 in
15:20 58.6 °F 47.3 °F 29.98 in NNW 2.3 mph 8.1 mph 66 % 0.00 in
15:25 58.7 °F 47.8 °F 29.98 in North 4.1 mph 10.0 mph 67 % 0.00 in
15:30 58.7 °F 47.0 °F 29.97 in NW 5.3 mph 10.4 mph 65 % 0.00 in
15:35 58.7 °F 47.8 °F 29.97 in WNW 3.3 mph 6.9 mph 67 % 0.00 in
15:40 58.7 °F 47.4 °F 29.98 in North 3.1 mph 8.1 mph 66 % 0.00 in
15:45 58.6 °F 47.3 °F 29.98 in NNE 5.4 mph 9.2 mph 66 % 0.00 in
15:50 58.6 °F 47.7 °F 29.97 in North 2.4 mph 11.5 mph 67 % 0.00 in
15:55 58.6 °F 47.3 °F 29.98 in NNW 3.7 mph 6.9 mph 66 % 0.00 in
16:00 58.4 °F 47.1 °F 29.98 in North 3.8 mph 9.2 mph 66 % 0.00 in
16:05 58.3 °F 47.0 °F 29.98 in NNW 6.7 mph 10.4 mph 66 % 0.00 in
16:10 58.1 °F 46.8 °F 29.98 in North 3.6 mph 8.1 mph 66 % 0.00 in
16:15 57.8 °F 46.5 °F 29.98 in NW 3.6 mph 8.1 mph 66 % 0.00 in
16:20 57.6 °F 46.7 °F 29.97 in NNW 2.9 mph 8.0 mph 67 % 0.00 in
16:25 57.3 °F 46.4 °F 29.98 in North 7.9 mph 11.5 mph 67 % 0.00 in
16:30 57.1 °F 46.2 °F 29.98 in NNE 6.2 mph 11.5 mph 67 % 0.00 in
16:35 56.9 °F 46.4 °F 29.98 in NNE 5.1 mph 11.5 mph 68 % 0.00 in
16:40 56.9 °F 46.8 °F 29.99 in North 1.0 mph 6.9 mph 69 % 0.00 in
16:45 56.8 °F 46.7 °F 29.99 in NW 3.0 mph 8.1 mph 69 % 0.00 in
16:50 56.6 °F 46.2 °F 29.99 in North 4.7 mph 11.5 mph 68 % 0.00 in
16:55 56.5 °F 46.1 °F 30.00 in North 3.1 mph 10.4 mph 68 % 0.00 in
17:00 56.4 °F 45.6 °F 30.00 in North 6.5 mph 11.5 mph 67 % 0.00 in
17:05 56.3 °F 45.5 °F 30.00 in NNW 4.5 mph 6.9 mph 67 % 0.00 in
17:10 56.2 °F 45.8 °F 30.00 in NNW 4.3 mph 8.1 mph 68 % 0.00 in
17:15 56.0 °F 45.2 °F 30.01 in WNW 4.4 mph 11.5 mph 67 % 0.00 in
17:20 55.9 °F 45.1 °F 30.01 in NNE 7.0 mph 11.5 mph 67 % 0.00 in
17:26 55.8 °F 45.8 °F 30.01 in NE 4.0 mph 9.2 mph 69 % 0.00 in
17:31 55.7 °F 45.3 °F 30.02 in NE 5.2 mph 6.0 mph 68 % 0.00 in
17:36 55.7 °F 45.7 °F 30.02 in NNE 3.2 mph 6.9 mph 69 % 0.00 in
17:41 55.5 °F 45.1 °F 30.02 in North 2.0 mph 9.0 mph 68 % 0.00 in
17:46 55.5 °F 45.5 °F 30.02 in North 5.0 mph 12.0 mph 69 % 0.00 in
17:51 55.4 °F 45.4 °F 30.02 in NNW 3.0 mph 12.0 mph 69 % 0.00 in
17:56 55.3 °F 45.3 °F 30.02 in North 5.0 mph 13.0 mph 69 % 0.00 in
18:01 55.2 °F 46.0 °F 30.03 in NW 3.2 mph 10.4 mph 71 % 0.00 in
18:06 55.1 °F 45.5 °F 30.03 in NNE 4.4 mph 8.1 mph 70 % 0.00 in
18:11 55.1 °F 45.1 °F 30.02 in NNE 4.1 mph 10.4 mph 69 % 0.00 in
18:16 55.0 °F 45.4 °F 30.03 in NE 2.5 mph 9.2 mph 70 % 0.00 in
18:21 54.8 °F 45.2 °F 30.03 in North 6.5 mph 9.2 mph 70 % 0.00 in
18:26 54.8 °F 45.2 °F 30.03 in NE 7.4 mph 11.5 mph 70 % 0.00 in
18:31 54.6 °F 45.4 °F 30.03 in NE 7.4 mph 12.0 mph 71 % 0.00 in
18:36 54.5 °F 44.5 °F 30.04 in NNW 7.9 mph 12.0 mph 69 % 0.00 in
18:41 54.5 °F 44.9 °F 30.05 in NNE 4.2 mph 10.4 mph 70 % 0.00 in
18:46 54.4 °F 44.8 °F 30.05 in NNW 7.1 mph 11.0 mph 70 % 0.00 in
18:51 54.4 °F 44.4 °F 30.04 in North 7.8 mph 11.5 mph 69 % 0.00 in
18:56 54.3 °F 44.7 °F 30.05 in NNW 6.4 mph 10.0 mph 70 % 0.00 in
19:01 54.2 °F 44.6 °F 30.05 in NW 9.1 mph 12.0 mph 70 % 0.00 in
19:06 54.1 °F 44.2 °F 30.05 in NNE 3.1 mph 8.1 mph 69 % 0.00 in
19:11 54.1 °F 44.2 °F 30.06 in North 5.8 mph 9.2 mph 69 % 0.00 in
19:16 54.1 °F 44.5 °F 30.06 in NE 5.5 mph 10.4 mph 70 % 0.00 in
19:21 54.0 °F 44.4 °F 30.06 in North 7.0 mph 10.4 mph 70 % 0.00 in
19:26 53.9 °F 44.0 °F 30.06 in NE 3.8 mph 9.2 mph 69 % 0.00 in
19:31 53.8 °F 43.9 °F 30.07 in North 7.5 mph 12.7 mph 69 % 0.00 in
19:37 53.8 °F 43.9 °F 30.07 in North 7.7 mph 11.5 mph 69 % 0.00 in
19:42 53.8 °F 43.9 °F 30.07 in NNW 7.6 mph 11.5 mph 69 % 0.00 in
19:47 53.7 °F 43.4 °F 30.07 in NW 3.2 mph 10.4 mph 68 % 0.00 in
19:52 53.7 °F 43.8 °F 30.07 in North 7.1 mph 11.5 mph 69 % 0.00 in
19:57 53.7 °F 43.4 °F 30.08 in NE 6.5 mph 11.5 mph 68 % 0.00 in
20:02 53.6 °F 43.3 °F 30.07 in NNE 6.0 mph 10.4 mph 68 % 0.00 in
20:07 53.5 °F 42.8 °F 30.07 in North 6.2 mph 10.4 mph 67 % 0.00 in
20:12 53.5 °F 43.2 °F 30.07 in NNW 4.4 mph 8.1 mph 68 % 0.00 in
20:17 53.4 °F 42.7 °F 30.08 in North 6.9 mph 11.5 mph 67 % 0.00 in
20:22 53.3 °F 42.2 °F 30.08 in NE 6.9 mph 12.0 mph 66 % 0.00 in
20:27 53.2 °F 41.7 °F 30.08 in NNW 9.2 mph 12.7 mph 65 % 0.00 in
20:32 53.2 °F 42.1 °F 30.09 in NW 4.4 mph 9.2 mph 66 % 0.00 in
20:37 53.1 °F 42.0 °F 30.08 in NNW 5.2 mph 9.2 mph 66 % 0.00 in
20:42 53.0 °F 41.5 °F 30.10 in NNW 8.9 mph 15.0 mph 65 % 0.00 in
20:47 52.9 °F 41.8 °F 30.09 in NNW 5.9 mph 11.0 mph 66 % 0.00 in
20:52 52.8 °F 41.7 °F 30.10 in NNE 4.7 mph 12.7 mph 66 % 0.00 in
20:57 52.7 °F 41.3 °F 30.10 in North 6.9 mph 13.0 mph 65 % 0.00 in
21:02 52.6 °F 41.6 °F 30.10 in NNW 4.9 mph 11.0 mph 66 % 0.00 in
21:08 52.6 °F 41.6 °F 30.10 in NNE 9.2 mph 12.7 mph 66 % 0.00 in
21:13 52.4 °F 41.4 °F 30.10 in NNE 6.4 mph 10.4 mph 66 % 0.00 in
21:18 52.3 °F 41.3 °F 30.11 in NNW 9.1 mph 18.0 mph 66 % 0.00 in
21:23 52.3 °F 41.7 °F 30.11 in NNW 6.4 mph 9.2 mph 67 % 0.00 in
21:28 52.1 °F 41.1 °F 30.11 in North 7.6 mph 12.7 mph 66 % 0.00 in
21:33 52.1 °F 41.9 °F 30.11 in NNE 5.9 mph 10.4 mph 68 % 0.00 in
21:38 52.0 °F 41.8 °F 30.12 in NNE 7.6 mph 12.7 mph 68 % 0.00 in
21:43 51.9 °F 41.3 °F 30.12 in North 7.6 mph 10.4 mph 67 % 0.00 in
21:48 51.9 °F 40.9 °F 30.13 in NNW 10.3 mph 15.0 mph 66 % 0.00 in
21:53 51.8 °F 41.2 °F 30.12 in NNE 6.7 mph 11.5 mph 67 % 0.00 in
21:59 51.8 °F 41.6 °F 30.12 in North 7.2 mph 17.3 mph 68 % 0.00 in
22:04 51.7 °F 41.5 °F 30.13 in North 7.2 mph 12.7 mph 68 % 0.00 in
22:09 51.7 °F 41.9 °F 30.13 in NNW 6.2 mph 15.0 mph 69 % 0.00 in
22:14 51.7 °F 41.9 °F 30.13 in North 6.2 mph 11.5 mph 69 % 0.00 in
22:19 51.6 °F 42.1 °F 30.13 in North 5.1 mph 8.1 mph 70 % 0.00 in
22:24 51.5 °F 42.0 °F 30.13 in NNW 5.7 mph 9.0 mph 70 % 0.00 in
22:29 51.4 °F 41.6 °F 30.13 in WNW 4.4 mph 8.1 mph 69 % 0.00 in
22:34 51.3 °F 41.5 °F 30.13 in NNW 4.3 mph 8.1 mph 69 % 0.00 in
22:39 51.2 °F 41.0 °F 30.13 in North 8.1 mph 11.5 mph 68 % 0.00 in
22:44 51.0 °F 41.2 °F 30.13 in North 9.8 mph 13.8 mph 69 % 0.00 in
22:49 50.9 °F 41.1 °F 30.13 in NW 4.3 mph 10.4 mph 69 % 0.00 in
22:54 50.8 °F 41.0 °F 30.13 in North 8.5 mph 11.5 mph 69 % 0.00 in
22:59 50.7 °F 41.3 °F 30.13 in NNE 4.5 mph 6.9 mph 70 % 0.00 in
23:04 50.6 °F 40.8 °F 30.13 in NW 5.3 mph 12.7 mph 69 % 0.00 in
23:09 50.5 °F 40.7 °F 30.13 in NNE 6.5 mph 14.0 mph 69 % 0.00 in
23:16 50.3 °F 39.8 °F 30.14 in NE 8.4 mph 15.0 mph 67 % 0.00 in
23:21 50.2 °F 39.7 °F 30.14 in North 5.3 mph 13.8 mph 67 % 0.00 in
23:22 50.2 °F 39.7 °F 30.14 in NNE 5.5 mph 13.8 mph 67 % 0.00 in
23:24 50.1 °F 39.9 °F 29.98 in North 7.9 mph 16.1 mph 68 % 0.00 in
23:27 50.1 °F 39.6 °F 30.14 in NNE 5.9 mph 11.5 mph 67 % 0.00 in
23:29 50.0 °F 39.8 °F 30.14 in NNE 6.8 mph 12.0 mph 68 % 0.00 in
23:34 50.0 °F 40.2 °F 30.14 in NW 6.3 mph 11.5 mph 69 % 0.00 in
23:39 49.9 °F 39.4 °F 30.14 in NNE 7.7 mph 12.7 mph 67 % 0.00 in
23:44 49.8 °F 40.0 °F 30.14 in North 5.8 mph 10.4 mph 69 % 0.00 in
23:49 49.7 °F 40.3 °F 30.14 in North 6.8 mph 10.4 mph 70 % 0.00 in
23:54 49.6 °F 40.2 °F 30.14 in North 4.4 mph 11.5 mph 70 % 0.00 in
23:59 49.5 °F 40.1 °F 30.15 in NNW 4.3 mph 8.1 mph 70 % 0.00 in
Crab Meadow Weather
Compliments of Weather Underground - 3 mb

Script developed by  Jim McMurry - jmcmurry@mwt.net Adapted for the template by  Wim van der Kuil - Leuven-Template.eu

Recycling: We use over 80,000,000,000 aluminum soda cans every year.